EW9341 Weather Reports


time (UTC)temp
C
wind
direction
speed
KPH
gust
KPH
rain 1hr
cm
rain 24hr
cm
rain mn
cm
humidity
%
barometer
mb
20260503021443 13 223 1.6 6.4 0.00 1.02 0.05 94 1011.8
20260503021214 13 237 0.0 4.8 0.00 1.02 0.05 94 1011.9
20260503020441 13 235 0.0 0.0 0.00 1.02 0.05 94 1011.8
20260503015938 13 212 0.0 0.0 0.00 1.02 0.05 93 1011.7
20260503015437 13 202 0.0 1.6 0.00 1.02 0.05 93 1011.6
20260503014937 13 202 1.6 3.2 0.00 1.02 0.05 93 1011.7
20260503014433 13 202 1.6 4.8 0.00 1.02 0.05 93 1011.5
20260503013933 13 178 1.6 6.4 0.00 1.02 0.05 93 1011.6
20260503013433 13 181 3.2 6.4 0.00 1.02 0.05 93 1011.5
20260503012932 13 159 3.2 9.7 0.00 1.02 0.05 93 1011.6
20260503012426 13 160 4.8 9.7 0.00 1.02 0.05 93 1011.6
20260503011927 13 201 4.8 9.7 0.00 1.02 0.05 93 1011.6
20260503011426 13 210 4.8 9.7 0.00 1.02 0.05 93 1011.6
20260503010927 13 184 6.4 9.7 0.00 1.02 0.05 93 1011.6
20260503010423 14 203 6.4 11.3 0.00 1.02 0.05 93 1011.6
20260503010156 14 200 4.8 11.3 0.00 1.02 0.05 93 1011.6
20260503005425 14 187 3.2 8.0 0.00 1.02 0.05 93 1011.6
20260503005153 14 145 3.2 6.4 0.00 1.02 0.05 93 1011.5
20260503004423 14 159 3.2 6.4 0.00 1.02 0.05 93 1011.5
20260503004158 14 193 1.6 4.8 0.00 1.02 0.05 93 1011.7
20260503003428 14 181 3.2 6.4 0.00 1.02 0.05 93 1011.7
20260503002924 14 136 3.2 9.7 0.00 1.02 0.05 93 1011.7
20260503002428 14 131 3.2 9.7 0.00 1.02 0.05 93 1011.7
20260503001923 14 148 3.2 9.7 0.00 1.02 0.05 93 1011.8
20260503001425 14 114 3.2 9.7 0.00 1.02 0.05 93 1011.7
20260503000923 14 159 3.2 9.7 0.00 1.02 0.05 93 1011.6
20260503000425 14 95 3.2 11.3 0.00 1.02 0.05 93 1011.8
20260503000155 14 57 4.8 11.3 0.03 1.02 0.05 93 1011.9
20260502235423 14 97 4.8 11.3 0.03 1.02 0.05 93 1012.0
20260502234924 14 114 4.8 11.3 0.05 1.02 0.05 93 1012.3
20260502234653 14 130 1.6 11.3 0.05 1.02 0.05 93 1012.3
20260502233925 14 138 1.6 8.0 0.05 1.02 0.05 93 1012.2
20260502233425 14 203 3.2 9.7 0.05 1.02 0.05 92 1012.3
20260502232923 14 88 4.8 9.7 0.05 1.02 0.05 92 1012.4
20260502232436 14 229 3.2 9.7 0.05 1.02 0.05 92 1012.6
20260502232153 14 182 4.8 11.3 0.05 1.02 0.05 92 1012.6
20260502231421 14 160 4.8 11.3 0.05 1.02 0.05 92 1012.6
20260502230915 14 196 6.4 12.9 0.05 1.02 0.05 92 1012.4
20260502230412 14 113 6.4 14.5 0.05 1.02 0.05 92 1012.4
20260502225912 14 109 6.4 14.5 0.03 0.99 0.05 92 1012.5
20260502225643 14 125 4.8 14.5 0.03 0.99 0.03 92 1012.6
20260502224912 14 188 4.8 11.3 0.00 0.99 0.00 92 1012.8
20260502224411 14 77 4.8 12.9 0.00 0.99 0.00 92 1012.8
20260502223911 14 80 6.4 14.5 0.03 0.99 0.00 91 1012.9
20260502223409 14 51 8.0 14.5 0.05 0.99 0.00 91 1012.8
20260502222908 14 58 6.4 14.5 0.10 0.99 0.00 91 1012.8
20260502222407 14 101 6.4 16.1 0.15 0.99 0.00 91 1012.7
20260502222138 14 100 6.4 16.1 0.15 0.99 0.00 91 1012.8
20260502221407 14 69 6.4 12.9 0.23 0.99 0.00 91 1012.8
20260502220908 14 86 6.4 11.3 0.38 0.99 0.00 91 1012.8
20260502215900 14 59 6.4 14.5 0.69 0.99 0.99 90 1012.8
20260502215356 14 46 4.8 14.5 0.86 0.99 0.99 90 1012.7
20260502214848 14 49 4.8 11.3 0.99 0.99 0.99 89 1012.9
20260502214618 15 48 4.8 9.7 0.99 0.99 0.99 89 1013.1
20260502213848 15 76 4.8 9.7 0.97 0.97 0.97 89 1013.2
20260502212844 15 313 3.2 6.4 0.89 0.89 0.89 88 1013.6
20260502212615 15 323 3.2 8.0 0.84 0.84 0.84 87 1014.0
20260502211845 15 318 4.8 16.1 0.79 0.79 0.81 86 1014.2
20260502211613 15 236 6.4 16.1 0.71 0.71 0.71 85 1014.6
20260502210842 15 275 9.7 22.5 0.56 0.56 0.61 84 1014.7
20260502210341 16 299 11.3 22.5 0.41 0.41 0.43 83 1014.8
20260502205842 16 246 11.3 32.2 0.30 0.30 0.33 80 1014.9
20260502205343 17 290 12.9 32.2 0.13 0.13 0.15 77 1014.5
20260502205110 17 236 9.7 27.4 0.00 0.00 0.00 70 1014.2
20260502204334 17 201 4.8 19.3 0.00 0.00 0.00 68 1014.1
20260502203834 17 98 4.8 9.7 0.00 0.00 0.00 67 1012.9
20260502203334 17 35 4.8 9.7 0.00 0.00 0.00 67 1012.9
20260502202832 17 28 4.8 9.7 0.00 0.00 0.00 66 1013.0
20260502202331 17 63 4.8 9.7 0.00 0.00 0.00 66 1013.1
20260502201830 17 63 6.4 11.3 0.00 0.00 0.00 65 1012.9
20260502201330 17 39 4.8 11.3 0.00 0.00 0.00 65 1013.0
20260502200830 17 44 3.2 9.7 0.00 0.00 0.00 65 1013.1
20260502200328 17 13 3.2 9.7 0.00 0.00 0.00 65 1013.2
20260502195828 17 315 3.2 8.0 0.00 0.00 0.00 64 1013.3
20260502195329 17 350 3.2 8.0 0.00 0.00 0.00 64 1013.4
20260502194826 17 346 4.8 11.3 0.00 0.00 0.00 63 1013.4
20260502194551 17 60 4.8 11.3 0.00 0.00 0.00 63 1013.3
20260502193816 17 56 3.2 8.0 0.00 0.00 0.00 63 1013.4
20260502193547 17 5 3.2 8.0 0.00 0.00 0.00 62 1013.6
20260502192816 18 58 3.2 8.0 0.00 0.00 0.00 62 1013.5
20260502192316 18 9 3.2 8.0 0.00 0.00 0.00 63 1013.6
20260502191817 18 313 3.2 6.4 0.00 0.00 0.00 63 1013.6
20260502191317 18 339 3.2 6.4 0.00 0.00 0.00 64 1013.6
20260502190818 18 5 3.2 6.4 0.00 0.00 0.00 64 1013.6
20260502190316 18 355 3.2 6.4 0.00 0.00 0.00 63 1013.6
20260502185817 18 0 3.2 6.4 0.00 0.00 0.00 63 1013.6
20260502185317 18 334 3.2 6.4 0.00 0.00 0.00 62 1013.6
20260502184817 19 337 4.8 6.4 0.00 0.00 0.00 61 1013.8
20260502184317 19 319 4.8 8.0 0.00 0.00 0.00 60 1013.8
20260502184047 19 71 3.2 8.0 0.00 0.00 0.00 60 1013.8
20260502182816 19 59 4.8 9.7 0.00 0.00 0.00 60 1013.7
20260502182316 20 47 4.8 8.0 0.00 0.00 0.00 60 1013.7
20260502181815 20 60 4.8 8.0 0.00 0.00 0.00 59 1013.8
20260502181315 20 333 4.8 9.7 0.00 0.00 0.00 59 1013.8
20260502180821 20 344 4.8 9.7 0.00 0.00 0.00 59 1013.8
20260502180315 20 355 4.8 9.7 0.00 0.00 0.00 59 1013.8
20260502164302 23 317 4.8 12.9 0.00 0.00 0.00 49 1014.3
20260502163802 24 355 6.4 14.5 0.00 0.00 0.00 49 1014.3
20260502163302 24 321 8.0 14.5 0.00 0.00 0.00 49 1014.4
20260502162759 24 336 9.7 14.5 0.00 0.00 0.00 49 1014.5
20260502162300 24 305 9.7 16.1 0.00 0.00 0.00 49 1014.7
20260502161803 25 311 9.7 16.1 0.00 0.00 0.00 49 1014.6
20260502161258 25 350 9.7 17.7 0.00 0.00 0.00 49 1014.6
20260502160758 25 323 8.0 17.7 0.00 0.00 0.00 49 1014.6
20260502160257 25 321 8.0 12.9 0.00 0.00 0.00 48 1014.7
20260502152247 26 185 3.2 9.7 0.00 0.00 0.00 45 1015.2
20260502152018 26 184 3.2 9.7 0.00 0.00 0.00 46 1015.3
20260502151247 26 250 3.2 11.3 0.00 0.00 0.00 48 1015.3
20260502150248 26 229 3.2 8.0 0.00 0.00 0.00 49 1015.5
20260502130728 23 281 6.4 14.5 0.00 0.00 0.00 59 1016.9
20260502130228 23 218 6.4 14.5 0.00 0.00 0.00 59 1016.9
20260502123727 23 241 4.8 14.5 0.00 0.00 0.00 59 1016.9
20260502123227 23 233 4.8 14.5 0.00 0.00 0.00 60 1017.0
20260502122727 23 252 4.8 14.5 0.00 0.00 0.00 60 1017.0
20260502122240 23 227 6.4 12.9 0.00 0.00 0.00 59 1017.2
20260502121727 23 212 8.0 16.1 0.00 0.00 0.00 59 1017.2
20260502121227 23 225 8.0 16.1 0.00 0.00 0.00 59 1017.3
20260502120728 23 217 9.7 19.3 0.00 0.00 0.00 60 1017.3
20260502120227 23 215 9.7 22.5 0.00 0.00 0.00 60 1017.4
20260502115727 23 209 8.0 22.5 0.00 0.00 0.00 61 1017.4
20260502115227 22 190 6.4 17.7 0.00 0.00 0.00 62 1017.4
20260502114721 22 284 6.4 17.7 0.00 0.00 0.00 63 1017.6
20260502113708 22 207 6.4 16.1 0.00 0.00 0.00 63 1017.6
20260502113202 22 282 6.4 14.5 0.00 0.00 0.00 62 1017.7
20260502112656 22 277 6.4 19.3 0.00 0.00 0.00 62 1017.8
20260502112150 22 219 6.4 19.3 0.00 0.00 0.00 63 1017.8
20260502111650 22 228 6.4 17.7 0.00 0.00 0.00 62 1017.7
20260502111418 22 229 8.0 17.7 0.00 0.00 0.00 62 1017.8
20260502110919 22 192 6.4 14.5 0.00 0.00 0.00 62 1017.9
20260502110146 22 244 4.8 12.9 0.00 0.00 0.00 62 1017.8
20260502105647 22 157 4.8 12.9 0.00 0.00 0.00 63 1017.8
20260502105146 22 221 6.4 20.9 0.00 0.00 0.00 64 1017.8
20260502104645 22 239 8.0 20.9 0.00 0.00 0.00 65 1017.9
20260502104144 22 235 8.0 19.3 0.00 0.00 0.00 64 1017.9
20260502103914 22 219 8.0 19.3 0.00 0.00 0.00 62 1017.9
20260502103144 22 219 8.0 19.3 0.00 0.00 0.00 63 1018.0
20260502102641 21 239 8.0 19.3 0.00 0.00 0.00 63 1018.0
20260502102142 21 220 6.4 14.5 0.00 0.00 0.00 64 1018.0
20260502101139 21 234 6.4 16.1 0.00 0.00 0.00 66 1018.0
20260502100639 21 219 8.0 16.1 0.00 0.00 0.00 66 1018.0
20260502100140 21 186 9.7 16.1 0.00 0.00 0.00 65 1018.1
20260502090902 18 225 3.2 8.0 0.00 0.00 0.00 73 1018.3
20260502090129 18 228 4.8 12.9 0.00 0.00 0.00 72 1018.3
20260502071349 14 22 0.0 0.0 0.00 0.00 0.00 72 1017.9
20260502070611 14 23 0.0 0.0 0.00 0.00 0.00 72 1017.8
20260502070107 14 23 0.0 0.0 0.00 0.00 0.00 72 1018.0
20260502065601 13 23 0.0 1.6 0.00 0.00 0.00 71 1018.0
20260502065057 13 22 0.0 3.2 0.00 0.00 0.00 71 1017.9
20260502064600 13 23 0.0 3.2 0.00 0.00 0.00 71 1017.9
20260502063554 13 22 1.6 4.8 0.00 0.00 0.00 70 1017.8
20260502063052 13 23 1.6 4.8 0.00 0.00 0.00 70 1017.9
20260502062553 13 235 3.2 4.8 0.00 0.00 0.00 70 1018.2
20260502062050 13 211 4.8 9.7 0.00 0.00 0.00 70 1018.3
20260502061550 13 225 4.8 9.7 0.00 0.00 0.00 70 1018.3
20260502061049 13 217 3.2 8.0 0.00 0.00 0.00 70 1018.4
20260502060549 13 191 4.8 8.0 0.00 0.00 0.00 70 1018.2
20260502060059 13 221 4.8 11.3 0.00 0.00 0.00 69 1018.3
20260502055548 13 195 3.2 11.3 0.00 0.00 0.00 69 1018.3
20260502055320 13 198 1.6 6.4 0.00 0.00 0.00 69 1018.1
20260502054044 12 217 1.6 4.8 0.00 0.00 0.00 70 1018.1
20260502053815 12 178 0.0 4.8 0.00 0.00 0.00 69 1018.1
20260502053046 12 219 1.6 4.8 0.00 0.00 0.00 69 1018.1
20260502052544 12 219 3.2 6.4 0.00 0.00 0.00 68 1018.0
20260502052317 12 231 3.2 6.4 0.00 0.00 0.00 68 1018.1
20260502051544 12 204 3.2 6.4 0.00 0.00 0.00 68 1018.0
20260502051049 12 220 3.2 4.8 0.00 0.00 0.00 68 1018.0
20260502050544 12 229 3.2 4.8 0.00 0.00 0.00 67 1017.9
20260502050057 12 250 3.2 6.4 0.00 0.00 0.00 67 1018.1
20260502045545 12 216 1.6 6.4 0.00 0.00 0.00 66 1018.0
20260502045042 12 205 3.2 11.3 0.00 0.00 0.00 66 1017.9
20260502044814 12 247 3.2 11.3 0.00 0.00 0.00 66 1018.0
20260502044041 12 243 3.2 8.0 0.00 0.00 0.00 66 1018.1
20260502043537 12 225 3.2 8.0 0.00 0.00 0.00 65 1018.0
20260502043028 12 223 3.2 8.0 0.00 0.00 0.00 65 1018.1
20260502042759 12 207 4.8 9.7 0.00 0.00 0.00 64 1017.9
20260502042030 12 201 6.4 9.7 0.00 0.00 0.00 64 1017.6
20260502041528 12 205 6.4 9.7 0.00 0.00 0.00 65 1017.6
20260502041030 12 198 6.4 9.7 0.00 0.00 0.00 65 1017.8
20260502040801 12 186 6.4 9.7 0.00 0.00 0.00 65 1017.8
20260502040028 12 201 6.4 9.7 0.00 0.00 0.00 65 1017.9
20260502035528 12 223 4.8 9.7 0.00 0.00 0.00 64 1017.9
20260502035026 12 202 4.8 8.0 0.00 0.00 0.00 64 1017.9
20260502034526 12 196 6.4 11.3 0.00 0.00 0.00 64 1017.9
20260502034258 12 185 6.4 11.3 0.00 0.00 0.00 64 1017.9
20260502033526 12 192 4.8 9.7 0.00 0.00 0.00 64 1018.0
20260502033259 12 211 6.4 11.3 0.00 0.00 0.00 64 1018.0
20260502032522 12 196 6.4 11.3 0.00 0.00 0.00 63 1018.0
20260502032015 12 190 6.4 11.3 0.00 0.00 0.00 63 1018.1
20260502031510 12 199 6.4 12.9 0.00 0.00 0.00 62 1018.2
20260502031004 12 224 8.0 12.9 0.00 0.00 0.00 62 1018.2
20260502025955 12 190 4.8 12.9 0.00 0.00 0.00 60 1018.4
20260502025454 12 176 4.8 9.7 0.00 0.00 0.00 59 1018.2
20260502024954 12 294 6.4 11.3 0.00 0.00 0.00 60 1018.2
20260502024454 12 167 6.4 12.9 0.00 0.00 0.00 60 1018.2
20260502023956 12 183 6.4 12.9 0.00 0.00 0.00 60 1018.2
20260502023454 12 176 6.4 11.3 0.00 0.00 0.00 60 1018.2
20260502022956 12 172 6.4 11.3 0.00 0.00 0.00 60 1018.2
20260502022454 12 206 6.4 11.3 0.00 0.00 0.00 59 1018.4
20260502021954 12 216 8.0 11.3 0.00 0.00 0.00 59 1018.5